Other Public Products
Issued by NWS Charleston, SC

Current Version | Previous Version | Graphics & Text | Print | Product List | Glossary On
Versions: 1 2 3 4 5 6 7 8 9 10 11 12 13 14 15 16 17 18 19 20 21 22 23 24 25 26 27 28 29 30 31 32 33 34 35 36 37 38 39 40 41 42 43 44 45 46 47 48 49 50
041
FPUS82 KCHS 260612
OPUCHS

TEST...KCHS/KSAV Gateway Observations...TEST
National Weather Service Charleston SC
200 AM EDT THU APR 26 2018

NOTE: "fair" indicates few or no clouds below 12,000 feet with no
significant weather and/or obstructions to visibility.

SCZ050-WAZ558-NCZ071-TXZ119-213-PAZ071-DCZ001-FLZ074-172-MI076-
NYZ176-178-MAZ016-IL014-TNZ027-NJZ106-GAZ044-MD014-260700-

...Gateway Observations for Charleston International...

CITY           SKY/WX    TMP DP  RH WIND       PRES   REMARKS
Chas Airport   FAIR      63  55  75 SW7       29.84S
6HR MIN TEMP:  63; 6HR MAX TEMP:  74;

Seattle        PTCLDY    61  42  49 N12       30.05F
6HR MIN TEMP:  59; 6HR MAX TEMP:  75;

Charlotte      CLOUDY    59  53  80 NW3       29.85S
6HR MIN TEMP:  57; 6HR MAX TEMP:  68;

Dallas DFW     CLEAR     50  47  89 W7        30.07F
6HR MIN TEMP:  50; 6HR MAX TEMP:  54;

Dallas Love    CLEAR     51  48  89 W5        30.08F
6HR MIN TEMP:  50; 6HR MAX TEMP:  55;

Philladelphia  CLOUDY    61  53  75 NW10      29.66F
6HR MIN TEMP:  60; 6HR MAX TEMP:  64;

Wash National  FAIR      59  48  67 NW13      29.75R
6HR MIN TEMP:  59; 6HR MAX TEMP:  63; 6HR PCP: TRACE;

Baltimore      FAIR      55  50  83 W7        29.72S
6HR MIN TEMP:  55; 6HR MAX TEMP:  63; 6HR PCP: TRACE;

Miami          FAIR      68  63  84 SW5       29.95F
6HR MIN TEMP:  68; 6HR MAX TEMP:  77;

Detroit        FAIR      42  35  76 CALM      29.95F
6HR MIN TEMP:  42; 6HR MAX TEMP:  54;

Newark         CLOUDY    55  55 100 CALM      29.61F FOG
6HR MIN TEMP:  54; 6HR MAX TEMP:  56; 6HR PCP:  0.33;

Laguardia      LGT RAIN  54  52  93 CALM      29.60F VSB 3/4
6HR MIN TEMP:  53; 6HR MAX TEMP:  55; 6HR PCP:  0.19;

J F K          LGT RAIN  51  51 100 SW3       29.62F FOG
6HR MIN TEMP:  51; 6HR MAX TEMP:  53; 6HR PCP:  0.01;

Boston Logan   FOG       51  51 100 SE6       29.63F VSB 1/2
6HR MIN TEMP:  48; 6HR MAX TEMP:  56; 6HR PCP:  0.20;

Ft. Lauderdale FAIR      70  63  78 W6        29.93F
6HR MIN TEMP:  70; 6HR MAX TEMP:  78;

Chicago O`Hare FAIR      40  29  64 CALM      29.98F
6HR MIN TEMP:  38; 6HR MAX TEMP:  45;

Chicago Midway FAIR      39  30  70 W3        29.99F
6HR MIN TEMP:  39; 6HR MAX TEMP:  46;

Houston Bush   MOCLDY    63  54  72 N9        30.03S
6HR MIN TEMP:  63; 6HR MAX TEMP:  77;

Houston Hobby  MOCLDY    66  53  63 N15       30.01F
6HR MIN TEMP:  66; 6HR MAX TEMP:  78;

Nashville      CLOUDY    61  51  70 W8        29.91F
6HR MIN TEMP:  60; 6HR MAX TEMP:  67;

Atlanta        FAIR      54  50  86 NW5       29.90F
6HR MIN TEMP:  53; 6HR MAX TEMP:  65;


$$

GAZ044-118-TXZ119-213-NCZ071-DCZ001-MDZ014-506-PAZ021-071-NJZ106-
NYZ176-178-MAZ106-OHZ011-021-055-MIZ076-KYZ091-ILZ014-INZ047-
MNZ060-ONZ431-260700-

...Gateway Observations for Savannah International...

CITY           SKY/WX    TMP DP  RH WIND       PRES   REMARKS
Savannah Arpt  FAIR      59  54  83 W6        29.87F
6HR MIN TEMP:  59; 6HR MAX TEMP:  73;

Atlanta        FAIR      54  50  86 NW5       29.90F
6HR MIN TEMP:  53; 6HR MAX TEMP:  65;

Charlotte      CLOUDY    59  53  80 NW3       29.85S
6HR MIN TEMP:  57; 6HR MAX TEMP:  68;

Dallas DFW     CLEAR     50  47  89 W7        30.07F
6HR MIN TEMP:  50; 6HR MAX TEMP:  54;

Houston Bush   MOCLDY    63  54  72 N9        30.03S
6HR MIN TEMP:  63; 6HR MAX TEMP:  77;

Wash National  FAIR      59  48  67 NW13      29.75R
6HR MIN TEMP:  59; 6HR MAX TEMP:  63; 6HR PCP: TRACE;

Wash Dulles    PTCLDY    55  45  68 NW18G25   29.77R
6HR MIN TEMP:  55; 6HR MAX TEMP:  61;

Baltimore      FAIR      55  50  83 W7        29.72S
6HR MIN TEMP:  55; 6HR MAX TEMP:  63; 6HR PCP: TRACE;

Philadelphia   CLOUDY    61  53  75 NW10      29.66F
6HR MIN TEMP:  60; 6HR MAX TEMP:  64;

Newark         CLOUDY    55  55 100 CALM      29.61F FOG
6HR MIN TEMP:  54; 6HR MAX TEMP:  56; 6HR PCP:  0.33;

Laguardia      LGT RAIN  54  52  93 CALM      29.60F VSB 3/4
6HR MIN TEMP:  53; 6HR MAX TEMP:  55; 6HR PCP:  0.19;

J F K          LGT RAIN  51  51 100 SW3       29.62F FOG
6HR MIN TEMP:  51; 6HR MAX TEMP:  53; 6HR PCP:  0.01;

Boston         FOG       51  51 100 SE6       29.63F VSB 1/2
6HR MIN TEMP:  48; 6HR MAX TEMP:  56; 6HR PCP:  0.20;

Pittsburg      FAIR      41  37  86 NW13      29.88F
6HR MIN TEMP:  40; 6HR MAX TEMP:  48;

Akron          CLOUDY    39  34  82 NW7       29.92S WCI  34
6HR MIN TEMP:  39; 6HR MAX TEMP:  47;

Cleveland      FAIR      38  34  85 CALM      29.96F
6HR MIN TEMP:  37; 6HR MAX TEMP:  47;

Cincinnati     CLOUDY    49  35  58 N9        29.93S
6HR MIN TEMP:  49; 6HR MAX TEMP:  60;

Columbus       FAIR      43  43 100 E8        29.90F
Detroit        FAIR      42  35  76 CALM      29.95F
6HR MIN TEMP:  42; 6HR MAX TEMP:  54;

Chicago O`Hare FAIR      40  29  64 CALM      29.98F
6HR MIN TEMP:  38; 6HR MAX TEMP:  45;

Minneapolis    CLOUDY    49  34  56 SW3       29.93F
6HR MIN TEMP:  49; 6HR MAX TEMP:  58;

Indianapolis   MOCLDY    43  29  57 NW5       29.96F
6HR MIN TEMP:  43; 6HR MAX TEMP:  58;

Toronto Canada LGT RAIN  39  36  87 NW17      29.78F WCI  30

$$




USA.gov is the U.S. government's official web portal to all federal, state and local government web resources and services.